Location: Moscow
(55.7500°N, 37.5830°E)
Time: 21:15:35
(UTC+03:00)

Vanguard 2 Rocket - Pass Details

Date: 30 November 2021
Orbit: 554 x 3325 km, 32.9° (Epoch: 20 January)

Event Time Altitude Azimuth Distance (km) Brightness Sun altitude
Rises 20:20:10 0° 220° (SW) 4,139 10.6 -34.8°
Reaches altitude 10° 20:23:34 10° 203° (SSW) 3,566 10.0 -35.3°
Enters shadow 20:27:03 18° 181° (S) 3,365 9.6 -35.8°
